Вернуться в каталог

SL-12 R/B(2)

АктивенHEO
NORAD 23845·ROCKET BODY·🇷🇺 Russia

Запущен Apr 8, 1996 с Baikonur Cosmodrome

Loading…

Ближайшие Пролёты (ближайшие 24 часа)

TLE

СвежийSource: Space-Track

Эпоха: Sep 14, 2026, 21:58 UTC

1 23845U 96021D   26257.91576072 -.00000136  00000-0  00000-0 0  9990
2 23845   4.9870 221.5023 3968146 290.8023  42.4157  1.64338232182688

Отслеживайте SL-12 R/B(2) в реальном времени с AllMySat

Download on the App Store